Station NWWH1 - 1611400 - Nawiliwili, HI Image indicating link to RSS feed of recent meteorological observations for station NWWH1


Conditions at NWWH1 as of
(7:18 am HAST)
1718 GMT on 05/20/2024:
     

Click on the graph icon in the table below to see a time series plot of the last five days of that observation.

5-day plot - Wind Direction Wind Direction (WDIR):WSW ( 250 deg true )
5-day plot - Wind Speed Wind Speed (WSPD): 4.1 kts
5-day plot - Wind Gust Wind Gust (GST): 4.1 kts
5-day plot - Atmospheric Pressure Atmospheric Pressure (PRES):30.07 in
5-day plot - Air Temperature Air Temperature (ATMP): 71.1 °F
5-day plot - Water Temperature Water Temperature (WTMP): 78.3 °F
5-day plot - Wind Speed at 10 Meters Wind Speed at 10 meters (WSPD10M): 3.9 kts
5-day plot - Wind Speed at 20 Meters Wind Speed at 20 meters (WSPD20M): 3.9 kts
5-day plot -  Wind Speed, Wind Gust and Atmospheric Pressure Combined plot of Wind Speed, Gust, and Air Pressure
NOS Water Level Observation Network Water Level
Previous observations
TIME
(HAST)
5-day plot - Wind Direction
WDIR
 
5-day plot - Wind Speed
WSPD
kts
5-day plot - Wind Gust
GST
kts
5-day plot - Wave Height
WVHT
ft
5-day plot - Dominant Wave Period
DPD
sec
5-day plot - Average Wave Period
APD
sec
5-day plot - Mean Wave Direction
MWD
 
5-day plot - Atmospheric Pressure
PRES
in
5-day plot - Pressure Tendency
PTDY
in
5-day plot - Air Temperature
ATMP
°F
5-day plot - Water Temperature
WTMP
°F
5-day plot - Dew Point
DEWP
°F
5-day plot - Salinity
SAL
psu
5-day plot - Visibility
VIS
nmi
5-day plot - Tide (above MLLW)
TIDE
ft
2024-05-20 07:12 am W 2.9 4.1----30.07- 70.7 78.3----
2024-05-20 07:06 amWSW 2.9 5.1----30.07- 70.5 78.3----
2024-05-20 07:00 amWSW 4.1 5.1----30.07+0.04 70.5 78.4----
2024-05-20 06:54 am W 2.9 4.1----30.07- 70.2 78.4----
2024-05-20 06:48 am W 2.9 4.1----30.06- 70.0 78.4----
2024-05-20 06:42 am W 4.1 5.1----30.06- 69.8 78.4----
2024-05-20 06:36 am W 5.1 6.0----30.06- 69.8 78.3----
2024-05-20 06:30 am W 4.1 5.1----30.06- 69.8 78.3----
2024-05-20 06:24 am W 2.9 2.9----30.06- 69.6 78.4----
2024-05-20 06:18 amWSW 2.9 5.1----30.05- 69.4 78.4----
2024-05-20 06:12 amWSW 4.1 5.1----30.05- 69.3 78.3----
2024-05-20 06:06 amWSW 4.1 5.1----30.05- 69.3 78.3----
2024-05-20 06:00 amWSW 4.1 5.1----30.05+0.01 69.6 78.3----
2024-05-20 05:54 amWSW 5.1 6.0----30.05- 69.4 78.3----
2024-05-20 05:48 amWSW 5.1 5.1----30.04- 69.6 78.3----
2024-05-20 05:42 amWSW 4.1 6.0----30.05- 69.6 78.3----
2024-05-20 05:36 am W 5.1 6.0----30.04- 69.6 78.3----
2024-05-20 05:30 am W 4.1 5.1----30.04- 70.2 78.3----
2024-05-20 05:24 am W 1.9 2.9----30.04- 70.2 78.3----
2024-05-20 05:18 am W 1.9 4.1----30.04- 70.2 78.3----
2024-05-20 05:12 am W 4.1 5.1----30.04- 69.8 78.3----
2024-05-20 05:06 am W 4.1 5.1----30.04- 69.8 78.3----
2024-05-20 05:00 amWSW 4.1 4.1----30.03-0.01 69.6 78.3----
2024-05-20 04:54 am W 1.9 5.1----30.03- 69.8 78.3----
2024-05-20 04:48 am W 5.1 5.1----30.03- 69.4 78.3----
2024-05-20 04:42 amWSW 5.1 5.1----30.03- 69.4 78.3----
2024-05-20 04:36 am W 5.1 5.1----30.03- 69.4 78.3----
2024-05-20 04:30 amWSW 4.1 5.1----30.03- 69.4 78.3----
2024-05-20 04:24 am W 2.9 4.1----30.03- 69.6 78.3----
2024-05-20 04:18 am W 4.1 6.0----30.03- 69.4 78.3----
2024-05-20 04:12 am W 5.1 5.1----30.03- 69.6 78.3----
2024-05-20 04:06 am W 4.1 4.1----30.03- 69.8 78.3----
2024-05-20 04:00 am W 2.9 5.1----30.03-0.04 70.2 78.3----
2024-05-20 03:54 amWSW 4.1 5.1----30.03- 69.8 78.3----
2024-05-20 03:48 am W 4.1 4.1----30.03- 70.0 78.3----
2024-05-20 03:42 amWNW 1.9 2.9----30.03- 70.0 78.3----
2024-05-20 03:36 am W 2.9 4.1----30.03- 70.3 78.3----
2024-05-20 03:30 am W 2.9 5.1----30.03- 70.5 78.3----
2024-05-20 03:24 am W 4.1 5.1----30.03- 70.3 78.3----
2024-05-20 03:18 am W 5.1 5.1----30.03- 70.3 78.3----
2024-05-20 03:12 am W 5.1 6.0----30.03- 70.9 78.3----
2024-05-20 03:06 am W 5.1 5.1----30.03- 70.5 78.3----
2024-05-20 03:00 am W 5.1 6.0----30.03-0.05 70.3 78.3----
2024-05-20 02:54 am W 5.1 6.0----30.04- 70.5 78.3----
2024-05-20 02:48 am W 5.1 6.0----30.04- 70.7 78.3----
2024-05-20 02:42 amWSW 5.1 5.1----30.04- 70.9 78.3----
2024-05-20 02:36 am W 4.1 5.1----30.04- 70.9 78.3----
2024-05-20 02:30 am W 4.1 5.1----30.04- 70.7 78.3----
2024-05-20 02:24 am W 4.1 5.1----30.05- 70.7 78.3----
2024-05-20 02:18 amWSW 4.1 5.1----30.04- 70.7 78.3----
2024-05-20 02:12 amWSW 5.1 6.0----30.05- 70.7 78.3----
2024-05-20 02:06 am W 5.1 7.0----30.05- 71.1 78.3----
2024-05-20 02:00 am W 5.1 6.0----30.05-0.05 71.1 78.3----
2024-05-20 01:54 am W 5.1 6.0----30.05- 70.9 78.3----
2024-05-20 01:48 am W 5.1 6.0----30.05- 70.9 78.3----
2024-05-20 01:42 am W 5.1 6.0----30.05- 70.9 78.3----
2024-05-20 01:36 am W 6.0 7.0----30.05- 71.1 78.3----
2024-05-20 01:30 am W 5.1 6.0----30.06- 71.2 78.3----
2024-05-20 01:24 am W 5.1 6.0----30.06- 70.9 78.3----
2024-05-20 01:18 am W 4.1 6.0----30.06- 71.1 78.3----
2024-05-20 01:12 am W 5.1 7.0----30.06- 70.9 78.3----
2024-05-20 01:06 am W 6.0 6.0----30.06- 71.2 78.3----
2024-05-20 01:00 am W 5.1 6.0----30.07-0.03 71.4 78.3----
2024-05-20 12:54 am W 6.0 6.0----30.07- 71.2 78.3----
2024-05-20 12:48 am W 5.1 5.1----30.07- 71.6 78.3----
2024-05-20 12:42 am W 4.1 5.1----30.07- 71.8 78.3----
2024-05-20 12:36 amWNW 1.9 1.9----30.07- 71.6 78.3----
2024-05-20 12:30 am NW 1.0 2.9----30.07- 71.8 78.3----
2024-05-20 12:24 amWNW 1.9 4.1----30.08- 71.6 78.3----
2024-05-20 12:18 am W 2.9 5.1----30.08- 71.8 78.3----
2024-05-20 12:12 am W 4.1 6.0----30.08- 71.8 78.3----
2024-05-20 12:06 am W 5.1 6.0----30.09- 71.8 78.3----
2024-05-20 12:00 am W 4.1 5.1----30.09+0.00 72.0 78.3----
2024-05-19 11:54 pmWSW 4.1 4.1----30.09- 72.1 78.3----
2024-05-19 11:48 pmWSW 4.1 5.1----30.09- 72.1 78.3----
2024-05-19 11:42 pmWSW 4.1 5.1----30.09- 72.3 78.3----
2024-05-19 11:36 pmWSW 4.1 5.1----30.09- 72.5 78.3----
2024-05-19 11:30 pmWSW 2.9 4.1----30.09- 72.9 78.3----
2024-05-19 11:24 pmWSW 2.9 4.1----30.09- 73.0 78.3----
2024-05-19 11:18 pm W 2.9 4.1----30.10- 73.6 78.3----
2024-05-19 11:12 pmWNW 2.9 4.1----30.10- 73.4 78.3----
2024-05-19 11:06 pm NW 1.9 1.9----30.10- 73.4 78.3----
2024-05-19 11:00 pm W 1.9 2.9----30.10+0.03 73.4 78.3----
2024-05-19 10:54 pmWNW 1.0 1.9----30.10- 73.8 78.3----
2024-05-19 10:48 pmWNW 1.0 1.9----30.10- 73.8 78.3----
2024-05-19 10:42 pmWNW 1.9 4.1----30.10- 73.8 78.3----
2024-05-19 10:36 pm W 2.9 4.1----30.10- 73.8 78.3----
2024-05-19 10:30 pm W 4.1 4.1----30.10- 73.9 78.3----
2024-05-19 10:24 pm W 4.1 5.1----30.10- 73.9 78.3----
2024-05-19 10:18 pm W 4.1 5.1----30.10- 74.1 78.3----
2024-05-19 10:12 pm W 4.1 5.1----30.10- 74.3 78.3----
2024-05-19 10:06 pm W 4.1 5.1----30.10- 74.1 78.3----
2024-05-19 10:00 pm W 4.1 5.1----30.10+0.05 74.1 78.3----
2024-05-19 09:54 pm W 4.1 5.1----30.10- 73.9 78.3----
2024-05-19 09:48 pm W 4.1 5.1----30.10- 74.3 78.3----
2024-05-19 09:42 pm W 4.1 5.1----30.09- 74.1 78.3----
2024-05-19 09:36 pm W 4.1 5.1----30.09- 74.1 78.3----
2024-05-19 09:30 pm W 5.1 5.1----30.09- 74.1 78.3----
2024-05-19 09:24 pm W 5.1 5.1----30.09- 74.1 78.3----
2024-05-19 09:18 pm W 5.1 5.1----30.09- 74.3 78.3----
2024-05-19 09:12 pmWSW 5.1 5.1----30.09- 74.7 78.3----
2024-05-19 09:06 pm W 2.9 4.1----30.09- 74.8 78.3----
2024-05-19 09:00 pmWSW 2.9 4.1----30.08+0.06 74.7 78.3----
2024-05-19 08:54 pm SW 4.1 4.1----30.08- 74.8 78.3----
2024-05-19 08:48 pmSSW 1.9 4.1----30.08- 75.4 78.3----
2024-05-19 08:42 pmSSW 1.9 2.9----30.09- 75.7 78.3----
2024-05-19 08:36 pmNNW 1.0 2.9----30.09- 76.1 78.1----
2024-05-19 08:30 pmNNW 1.9 2.9----30.09- 76.3 78.3----
2024-05-19 08:24 pmNNE 1.9 2.9----30.08- 76.5 78.3----
2024-05-19 08:18 pm NE 1.9 2.9----30.08- 76.5 78.3----
2024-05-19 08:12 pmNNE 2.9 4.1----30.08- 76.5 78.3----
2024-05-19 08:06 pmNNE 2.9 4.1----30.07- 76.5 78.3----
2024-05-19 08:00 pmNNE 1.9 2.9----30.07+0.06 76.5 78.3----
2024-05-19 07:54 pmNNE 2.9 4.1----30.07- 76.3 78.3----
2024-05-19 07:48 pmNNE 2.9 2.9----30.07- 76.3 78.3----
2024-05-19 07:42 pm N 1.9 2.9----30.07- 76.5 78.3----
2024-05-19 07:36 pm N 1.9 4.1----30.06- 76.5 78.3----
2024-05-19 07:30 pm N 2.9 4.1----30.06- 76.5 78.4----
2024-05-19 07:24 pmENE 1.9 2.9----30.06- 76.5 78.4----
2024-05-19 07:18 pm-------30.05-- 78.3----
2024-05-19 07:12 pm-------30.05-- 78.3----
2024-05-19 07:06 pm-------30.05-- 78.3----
2024-05-19 07:00 pmENE 1.9 1.9----30.05+0.04 76.6 78.3----
2024-05-19 06:54 pm- 0.0 1.9----30.05- 76.5 78.3----
2024-05-19 06:48 pm- 0.0 1.9----30.05- 76.8 78.3----
2024-05-19 06:42 pmESE 1.0 1.9----30.04- 76.6 78.3----
2024-05-19 06:36 pmESE 1.0 1.9----30.04- 76.6 78.3----
2024-05-19 06:30 pm- 0.0 1.0----30.04- 76.5 78.3----
2024-05-19 06:24 pm- 0.0 0.0----30.04- 76.6 78.3----
2024-05-19 06:18 pm- 0.0 1.0----30.04- 76.8 78.3----
2024-05-19 06:12 pm- 0.0 1.9----30.03- 77.0 78.3----
2024-05-19 06:06 pm E 1.9 2.9----30.03- 76.8 78.3----
2024-05-19 06:00 pm E 1.9 2.9----30.03+0.01 76.8 78.1----
2024-05-19 05:54 pm E 1.9 2.9----30.02- 76.8 78.1----
2024-05-19 05:48 pm E 2.9 2.9----30.02- 77.2 78.1----
2024-05-19 05:42 pm E 1.9 4.1----30.02- 77.2 78.3----
2024-05-19 05:36 pm SE 2.9 4.1----30.02- 77.5 78.3----
2024-05-19 05:30 pmESE 2.9 4.1----30.02- 77.4 78.3----
2024-05-19 05:24 pmESE 2.9 4.1----30.02- 77.9 78.3----
2024-05-19 05:18 pmESE 2.9 5.1----30.02-- 78.3----
2024-05-19 05:12 pmESE 4.1 5.1----30.01-- 78.3----
2024-05-19 05:06 pmESE 5.1 6.0----30.01-- 78.1----
2024-05-19 05:00 pm E 5.1 7.0----30.01-0.01 77.2 78.1----
2024-05-19 04:54 pmESE 6.0 7.0----30.01- 76.8 78.1----
2024-05-19 04:48 pmESE 5.1 7.0----30.01- 76.8 78.1----
2024-05-19 04:42 pmESE 6.0 7.0----30.01- 77.0 78.1----
2024-05-19 04:36 pmESE 6.0 7.0----30.01- 76.6 78.1----
2024-05-19 04:30 pm E 4.1 6.0----30.01- 77.0 78.1----
2024-05-19 04:24 pmESE 5.1 7.0----30.01- 77.0 78.1----
2024-05-19 04:18 pmESE 5.1 7.0----30.01- 77.0 78.1----
2024-05-19 04:12 pmESE 6.0 7.0----30.01- 77.2 78.1----
2024-05-19 04:06 pmESE 5.1 7.0----30.01- 77.5 78.1----
2024-05-19 04:00 pmESE 7.0 8.0----30.01- 78.3 78.1----
2024-05-19 03:54 pmESE 6.0 7.0----30.01- 78.4 78.1----
2024-05-19 03:48 pmESE 5.1 7.0----30.01- 78.3 78.1----
2024-05-19 03:42 pmESE 5.1 7.0----30.01- 78.4 78.1----
2024-05-19 03:36 pm E 6.0 7.0----30.01- 77.5 78.1----
2024-05-19 03:30 pmESE 6.0 8.0----30.01-- 78.1----
2024-05-19 03:24 pmESE 6.0 7.0----30.01-- 78.1----
2024-05-19 03:18 pmESE 7.0 8.0----30.01-- 78.1----
2024-05-19 03:12 pm SE 6.0 7.0----30.01-- 78.1----
2024-05-19 03:06 pm SE 6.0 7.0----30.01-- 78.1----
2024-05-19 03:00 pmESE 5.1 6.0----30.01-0.06- 78.1----
2024-05-19 02:54 pm SE 6.0 8.0----30.02-- 78.1----
2024-05-19 02:48 pmESE 8.0 8.9----30.01- 77.4 78.1----
2024-05-19 02:42 pm SE 7.0 8.9----30.01- 78.1 78.1----
2024-05-19 02:36 pm SE 7.0 8.9----30.01- 77.9 78.1----
2024-05-19 02:30 pm SE 8.0 9.9----30.02- 78.1 78.1----
2024-05-19 02:24 pm SE 8.9 9.9----30.01- 78.1 78.1----
2024-05-19 02:18 pm---------- 78.1----
2024-05-19 02:12 pm---------- 78.1----
2024-05-19 02:06 pm---------- 78.1----
2024-05-19 02:00 pmESE 6.0 7.0----30.02-0.06- 78.1----
2024-05-19 01:54 pmESE 5.1 7.0----30.02-- 78.1----
2024-05-19 01:48 pm SE 5.1 8.0------------
2024-05-19 01:42 pmESE 6.0 7.0------------
2024-05-19 01:36 pm S 4.1 8.0------------
2024-05-19 01:30 pm SE 7.0 9.9----30.03- 77.9 78.1----
2024-05-19 01:24 pm SE 6.0 8.0----30.03- 77.7 78.1----
2024-05-19 01:18 pm S 7.0 11.1----30.03- 76.8 78.1----
2024-05-19 01:12 pmSSE 6.0 9.9----30.03- 76.8 78.1----
2024-05-19 01:06 pm S 8.9 11.1----30.04- 76.6 78.1----
2024-05-19 01:00 pm S 8.0 9.9------- 78.1----
2024-05-19 12:54 pmSSE 8.0 12.0------- 78.1----
2024-05-19 12:48 pmSSE 8.9 12.0----30.05-- 78.1----
2024-05-19 12:42 pmSSE 8.0 11.1----30.05-- 78.1----
2024-05-19 12:36 pmSSE 8.9 12.0----30.06-- 78.1----
2024-05-19 12:30 pm SE 8.9 9.9----30.06-- 78.1----
2024-05-19 12:24 pm SE 7.0 12.0----30.06-- 78.1----
2024-05-19 12:18 pm-------30.07- 77.9 78.1----
2024-05-19 12:12 pm-------30.07- 78.3 78.1----
2024-05-19 12:06 pm-------30.07- 78.3 78.1----
2024-05-19 12:00 pm S 5.1 7.0----30.08-0.01 78.1 78.1----
2024-05-19 11:54 am S 5.1 7.0----30.08- 77.7 78.1----
2024-05-19 11:48 amSSE 6.0 8.9----30.07- 77.4 78.1----
2024-05-19 11:42 am SE 6.0 7.0----30.07- 77.2 78.1----
2024-05-19 11:36 am SE 6.0 7.0----30.07- 77.2 78.1----
2024-05-19 11:30 am SE 4.1 5.1----30.08- 77.9 78.1----
2024-05-19 11:24 am S 1.0 2.9----30.08- 78.4 78.1----
2024-05-19 11:18 am- 0.0 1.0----30.08- 77.7 78.1----
2024-05-19 11:12 am- 0.0 1.0----30.08- 77.4 78.1----
2024-05-19 11:06 amWSW 1.0 1.9----30.08- 76.6 78.1----
2024-05-19 11:00 amWSW 1.9 1.9----30.08-0.01 76.1 78.1----
2024-05-19 10:54 amWSW 1.9 1.9----30.08- 75.9 78.1----
2024-05-19 10:48 amWSW 1.9 2.9----30.08- 75.7 78.1----
2024-05-19 10:42 am W 1.9 1.9----30.08- 75.6 78.1----
2024-05-19 10:36 amWSW 1.9 2.9----30.08- 75.6 78.1----
2024-05-19 10:30 am SW 2.9 2.9----30.08- 75.2 78.1----
2024-05-19 10:24 am SW 2.9 2.9----30.08- 74.8 78.1----
2024-05-19 10:18 am SW 1.9 2.9----30.08- 74.8 78.1----
2024-05-19 10:12 am SW 1.9 2.9----30.08- 74.8 78.1----
2024-05-19 10:06 amWSW 1.9 1.9----30.09- 75.0 78.1----
2024-05-19 10:00 am SW 1.9 2.9----30.09+0.01- 78.1----
2024-05-19 09:54 amWSW 1.0 1.9----30.09-- 78.1----
2024-05-19 09:48 am W 1.9 2.9----30.09-- 78.1----
2024-05-19 09:42 amWSW 1.9 1.9----30.09-- 78.1----
2024-05-19 09:36 am SW 1.9 1.9----30.09-- 78.1----
2024-05-19 09:30 am S 1.9 2.9----30.09- 74.5 78.1----
2024-05-19 09:24 amSSW 2.9 2.9----30.09- 74.3 78.1----
2024-05-19 09:18 am W 1.9 2.9----30.09- 74.1 78.1----
2024-05-19 09:12 amWNW 1.9 2.9----30.09- 74.3 78.1----
2024-05-19 09:06 am N 1.0 1.9----30.09- 74.3 78.1----
2024-05-19 09:00 am NE 1.9 2.9----30.09+0.05- 78.1----
2024-05-19 08:54 am- 0.0 2.9----30.09-- 78.1----
2024-05-19 08:48 am W 2.9 5.1----30.10- 73.2 78.1----
2024-05-19 08:42 am W 5.1 6.0----30.10- 73.0 78.1----
2024-05-19 08:36 am W 6.0 7.0----30.10- 72.5 78.1----
2024-05-19 08:30 amWSW 6.0 7.0----30.10- 72.3 78.1----
2024-05-19 08:24 am W 5.1 7.0----30.10- 72.5 78.1----
2024-05-19 08:18 am W 4.1 4.1----30.10- 72.5 78.1----
2024-05-19 08:12 am SW 1.9 4.1----30.10- 72.7 78.1----
2024-05-19 08:06 amWSW 4.1 6.0----30.09- 72.9 78.1----
2024-05-19 08:00 amWNW 5.1 5.1----30.09+0.09 72.9 78.1----
2024-05-19 07:54 amWNW 4.1 5.1----30.09- 72.7 78.1----